Regional Weather Roundup
Issued by NWS

Home | Current Version | Previous Version | Text Only | Print | Product List | Glossary Off
Versions: 1 2 3 4 5 6 7 8 9 10 11 12 13 14 15 16 17 18 19 20 21 22 23 24 25 26 27 28 29 30 31 32 33 34 35 36 37 38 39 40 41 42 43 44 45 46 47 48 49 50

000
ASUS45 KPSR 201310
RWRAZ

ARIZONA HOURLY REGIONAL WEATHER ROUNDUP
NATIONAL WEATHER SERVICE PHOENIX AZ
600 AM MST SUN MAY 20 2018

NOTE: FAIR INDICATES FEW OR NO CLOUDS BELOW 12,000 FEET WITH NO
SIGNIFICANT WEATHER AND/OR OBSTRUCTIONS TO VISIBILITY.

AZZ001>003-036-201400-
NORTHWEST ARIZONA

CITY           SKY/WX    TMP DP  RH WIND       PRES   REMARKS
BULLHEAD CITY  CLEAR     73  34  23 SE6       29.76R
KINGMAN        CLEAR     58  26  29 SE15      29.91R
$$

AZZ004>008-015-016-018-201400-
NORTH CENTRAL ARIZONA

CITY           SKY/WX    TMP DP  RH WIND       PRES   REMARKS
GRAND CANYON   CLEAR     37  18  46 NE3       30.08R
WILLIAMS       CLEAR     39  21  48 S9        30.07R WCI  33
PRESCOTT       CLEAR     50  29  44 S8        30.01R
FLAGSTAFF      CLEAR     36  18  48 CALM      30.10R
PAYSON         CLEAR     50  14  23 CALM      30.03R
PAGE           CLEAR     65  37  35 CALM      29.93R
$$

AZZ009>014-017-201400-
NORTHEAST ARIZONA

CITY           SKY/WX    TMP DP  RH WIND       PRES   REMARKS
WINSLOW        CLEAR     51  16  24 CALM      30.01R
SAINT JOHNS    PTCLDY    48  13  24 SE6       30.07R
WINDOW ROCK    PTCLDY    42  15  33 CALM      30.10R
SHOW LOW       CLEAR     46  14  27 S5        30.11R
$$

AZZ540-542>544-546-548-201400-
GREATER PHOENIX AREA

CITY           SKY/WX    TMP DP  RH WIND       PRES   REMARKS
PHOENIX        PTCLDY    72  37  28 E9        29.81R
BUCKEYE        CLEAR     63  23  22 N6        29.82R
LUKE AFB       CLEAR     69  35  28 N6        29.81R
DEER VALLEY    CLEAR     68  32  26 E6        29.83R
SCOTTSDALE     CLEAR     70  38  31 CALM      29.85R
MESA-GATEWAY   CLEAR     66  28  24 E9        29.85R
CHANDLER       CLEAR     63  41  45 E3        29.83
$$

AZZ539-553-201400-
SOUTHWEST MARICOPA COUNTY AND PINAL COUNTY

CITY           SKY/WX    TMP DP  RH WIND       PRES   REMARKS
CASA GRANDE    CLEAR     63  28  26 E5        29.86R
GILA BEND      FAIR      65  21  18 SE3       29.80R
$$

AZZ503-504-507>509-201400-
SOUTHEAST ARIZONA

CITY           SKY/WX    TMP DP  RH WIND       PRES   REMARKS
TUCSON         CLEAR     63  28  26 SE10      29.92R
DAVIS-MONTHAN  CLEAR     61  25  25 SE8       29.90R
RYAN FIELD     CLEAR     57  28  33 E7        29.92
NOGALES        CLEAR     51  27  39 S3        29.98R
SIERRA VISTA   CLEAR     57  11  16 S3        30.03R
DOUGLAS        CLEAR     53   9  17 E6        30.01R
SAFFORD        CLEAR     57  15  19 E3        29.93R
$$

AZZ532-201400-
SOUTHWEST ARIZONA

CITY           SKY/WX    TMP DP  RH WIND       PRES   REMARKS
YUMA           CLEAR     69  44  40 SE5       29.78R
$$

CAZ041-043-047-048-061-525>527-560>570-201400-
SOUTHERN CALIFORNIA

CITY           SKY/WX    TMP DP  RH WIND       PRES   REMARKS
DOWNTOWN L.A.  CLOUDY    61  54  77 W3        29.91R
L.A. AIRPORT   CLOUDY    60  55  83 SW8       29.92R
SAN DIEGO      CLOUDY    61  54  77 SW5       29.95R
BURBANK        CLOUDY    59  56  89 S6        29.91R
ONTARIO        CLOUDY    59  54  83 W3        29.91R
RIVERSIDE      CLOUDY    60  55  83 CALM      29.91R
PALM SPRINGS   CLEAR     66  53  63 S3        29.79R
EL CENTRO NAS  CLEAR     62  45  53 CALM      29.77R
IMPERIAL       CLEAR     68  54  60 SE6       29.75R
BLYTHE         CLEAR     70  39  32 S3        29.76R
NEEDLES        CLEAR     77  37  23 CALM      29.77R
$$

NVZ020-UTZ003-201400-
SOUTHERN NEVADA-UTAH

CITY           SKY/WX    TMP DP  RH WIND       PRES   REMARKS
LAS VEGAS      PTCLDY    70  39  32 SW3       29.81R
SALT LAKE CITY PTCLDY    58  43  57 S8        29.96R
$$

NMZ009-TXZ055-201400-
NEW MEXICO-WEST TEXAS

CITY           SKY/WX    TMP DP  RH WIND       PRES   REMARKS
ALBUQUERQUE    MOSUNNY   56  40  55 E32G43    30.10R
EL PASO        CLEAR     66  35  31 CALM      30.01R
$$


........................KEY........................
SKY/WX - SKY CONDITION/WEATHER
TMP    - TEMPERATURE IN FAHRENHEIT
DP     - DEW POINT IN FAHRENHEIT
RH     - RELATIVE HUMIDITY IN PERCENT
WIND   - DIRECTION AND SPEED IN MILES PER HOUR (MPH)
VRB    - VARIABLE WIND DIRECTION
PRES   - MEAN SEA LEVEL PRESSURE IN INCHES OF MERCURY
         F - FALLING PRESSURE   R - RISING PRESSURE
         S - STEADY PRESSURE
VSB    - VISIBILITY IN MILES
HX     - HEAT INDEX IN FAHRENHEIT
WCI    - WIND CHILL INDEX IN FAHRENHEIT
TC     - TEMPERATURE IN CELSIUS WHICH IS ALSO KNOWN AS
         TEMPERATURE IN CENTIGRADE
AFB    - AIR FORCE BASE
         LUKE AFB IS LUKE AIR FORCE BASE
         DAVIS-MONTHAN IS DAVIS-MONTHAN AIR FORCE BASE
NAS    - NAVAL AIR STATION
         EL CENTRO NAS IS EL CENTRO NAVAL AIR STATION
N/A    - NOT AVAILABLE




USA.gov is the U.S. government's official web portal to all federal, state and local government web resources and services.